200 serials | cakewalk dimension pro 1.5 serial number

Date Name Success Rate
2009-10-17 06:18:26 Advanced CD Ripper Pro V2.58 SERIAL 46%
2009-10-17 06:18:30 Adventus 1.5 Virtual Analog Synthesizer SERIAL 79%
2009-10-17 06:18:30 AeroTags TagsLock Pro 2.50 SERIAL 71%
2009-10-17 06:19:00 Asmw Eraser Pro 3.0.548 SERIAL UNIQUE 63%
2009-10-17 06:20:07 Cakewalk Dimension Pro V1.2 VSTi RTAS AU UPDATE MAC OSX UB-DYNAMiCS 100%
2009-10-17 06:20:07 Cakewalk Dimension Pro VSTi DXi V1.2 Update 63%
2009-10-17 06:20:25 CleanMantra Ver 1.5 SERIAL 57%
2009-10-17 06:22:11 Easy Real Converter 1.5 SERIAL 70%
2009-10-17 06:22:21 Espion Pro V6.1.6 SERIAL 66%
2009-10-17 06:22:59 Find It Pro 4.01.11.29 SERIAL 58%
2009-10-17 06:23:03 Focus CD Ripper Pro 3.2 Serial By AT4RE 16%
2009-10-17 06:23:04 FotoBatch 5 Pro Build 1113 SERIAL 67%
2009-10-17 06:23:45 GPMI Pro Multipostes V5.1.21 SERIAL 12%
2009-10-17 06:27:56 MediaCam AV Creator V5.0.1.0 Serial Number By HaMMerHeAD 56%
2009-10-17 06:27:56 MediaLion DVD Ripper Pro V3.2.9 Serial AT4RE 0%
2009-10-17 06:28:04 MP3 Converter Pro 4.1 SERIAL 0%
2009-10-17 06:30:06 Photomatix Pro For Windows V2.5.1 SERIAL 9%
2009-10-17 06:31:33 Registry Help Pro V1.55 Serial By AT4RE 0%
2009-10-17 06:31:38 RogueRemover PRO V1.15..Serial By AT4RE 0%
2009-10-17 06:33:31 TurboBackup V6.0 Bld 0020240118 Serial Number By HaMMerHeAD 54%
2009-10-22 23:27:10 AceDesign 1 Pro 1.5 0%
2009-10-22 23:27:11 ACID Music Studio 6 Serial Number 67%
2009-10-22 23:27:13 Ad-Aware PRO 7 Serial 45%
2009-10-22 23:27:13 Adesign Pro 1.5 0%
2009-10-22 23:27:13 Adobe Flash CS3 Pro (9.0) Serial + Activation 65%
2009-10-22 23:27:14 Adobe Premier 1.5 Pro 80%
2009-10-22 23:27:14 Adobe Premier Pro 1.5 0%
2009-10-22 23:27:14 Adobe Premiere Pro 1.5 78%
2009-10-22 23:27:27 Avast Pro Serial 85%
2009-10-22 23:27:27 AVG Anti Virus 8.5 Pro Free + Serial Number Untill 2018 82%
2009-10-22 23:44:49 Benutec SpyMyPC PRO 1.5 0%
2009-10-22 23:44:50 Blaze Media Pro Serial 30%
2009-10-22 23:45:48 Cakewalk Dimension Pro V1.2 VSTi RTAS AU UPDATE MAC OSX UB-DYNAMiCS 0%
2009-10-22 23:45:48 Cakewalk Dimension Pro VSTi DXi V1.2 Update-BEAT 0%
2009-10-22 23:45:48 Cakewalk Kinetic 0%
2009-10-22 23:45:48 Cakewalk Music Creator Pro 24 0%
2009-10-22 23:45:48 Cakewalk Pro Audio 9 100%
2009-10-22 23:45:48 Cakewalk Sonar 14%
2009-10-22 23:45:49 Carrara 4 Pro Serial 0%
2009-10-22 23:45:53 Color By Number 2.0 81%
2009-10-22 23:45:54 Condition Zero Real Serial Number 49%
2009-10-22 23:46:26 DFX 8.0 For All Player Except Divx 8.0 Serial Number: 20%
2009-10-22 23:46:26 DFX FOR ALL PLAYERS 7.2 Serial Number: 41%
2009-10-22 23:46:26 DFX For Windows Media Player 6.4 Serial Number: 71%
2009-10-22 23:47:42 Ephypad No Version Number 0%
2009-10-22 23:47:42 EspAnadir Clasific Pro 1.5 0%
2009-10-22 23:47:50 Feuer's NFO File Maker Pro 1.5 0%
2009-10-22 23:47:50 Fifa 2009 2009 Serial Number 63%
2009-10-22 23:47:50 FIFA Manager 2005 Serial Number 60%
2009-10-22 23:47:51 Finalcut Pro 5.1 Serial 56%
2009-10-22 23:47:53 Free Serial Number Illustrator CS3 90%
2009-10-22 23:48:06 Halo 2 Serial Number 31%
2009-10-22 23:48:17 IntelliPDF BATES Pro 1.5.for 100%
2009-10-22 23:48:18 ISO Buster 1.5 Pro 0%
2009-10-22 23:48:18 Isobuster 1.5 Pro 0%
2009-10-22 23:48:18 IsoBuster Pro 1.5 Final 0%
2009-10-22 23:48:46 MatLab V6.5.1 PLP Serial Number 62%
2009-10-22 23:48:48 MFL-Adobe Photoshop Elements 2 0 Multilanguage With Serial Number 65%
2009-10-22 23:48:49 Microsoft Office 2007 PRO [Client]- Corporate Serial 0%
2009-10-22 23:48:49 Microsoft Office 2007 Pro [Server] Corprate Serial 0%
2009-10-22 23:48:50 Mobile Phone IMEI (Serial) Number 77%
2009-10-22 23:48:59 Nero 6 Reloaded 6.6.0.1 Future Versions Serial Number 60%
2009-10-22 23:49:02 Norton AntiVirus 2004 Pro Activation Key & Serial 63%
2009-10-22 23:49:19 Panda Antivirus Platinum Internet Security 2006 10.00.00 Serial Number 58%
2009-10-22 23:49:22 PhotoMarker Pro 1.5 0%
2009-10-22 23:49:26 Pro Evolution Soccer 2009 (serial Only) 64%
2009-10-22 23:49:26 Pro Evolution Soccer 2009 Serial 0%
2009-10-22 23:49:35 QuickTime Player 6.5.2 Serial Number 63%
2009-10-22 23:49:35 QuickTime Pro V7.0 Serial 20%
2009-10-22 23:49:51 SchoolGrad 2.0 SERIAL NUMBER 50%
2009-10-22 23:49:56 SOS Pro 1.5 81%
2009-10-22 23:49:58 Spell-Mell No Version Number 0%
2009-10-22 23:49:59 StarCraft Serial Number!! 37%
2009-10-22 23:50:00 Steganos Internet Anonym Pro 7.0 Serial By Thurisaz 0%
2009-10-22 23:50:09 The Game Factory [PRO SERIAL] 20%
2009-10-22 23:50:10 Tiger Woods PGA Tour 2004 Serial Number 0%
2009-10-22 23:50:13 TuneUp Utilities 2007 6.0.1255 Serial Number 62%
2009-10-22 23:50:34 WebcamXP PRO V2.20.024 Serial By Extreme Team 46%
2009-10-22 23:50:34 Whats On My Computer 1.0.1.30 Retail Serial Number; 62%
2009-10-22 23:50:38 WinZip 11.0 Pro Serial 0%
2009-10-22 23:50:38 WinZip 12 Pro Serial (Punkcracks) 0%
2009-10-22 23:50:46 Xilisoft Video Converter 3.1 Serial Number 78%
2009-10-22 23:50:52 Your Uninstaller! 2008 PRO 6.2.1347.Serial 0%
2009-10-22 23:50:58 ZoneAlarm 8 Pro Serial (Punkcracks) 0%
2011-09-08 09:46:08 4D (4th Dimension) v2.5 100%
2011-09-08 09:46:08 4D 4th Dimension v3.5.1 0%
2011-09-08 09:46:08 4D 4th Dimension v6.0 0%
2011-09-08 09:46:08 4D 4th Dimension v6.0.5J 0%
2011-09-08 09:46:08 4D 4th Dimension v6.5 0%
2011-09-08 09:46:08 4D 4th Dimension v6.7 0%
2011-09-08 09:46:08 4D 4th Dimension v6.7mc3 0%
2011-09-08 09:46:11 4th Dimension Server v6.0.6 0%
2011-09-08 09:46:11 4th Dimension SQL Server v6.0.6 0%
2011-09-08 09:46:11 4th Dimension v2.0.11 0%
2011-09-08 09:46:11 4th Dimension v3.5.1 0%
2011-09-08 09:46:11 4th Dimension v6.0 0%
2011-09-08 09:46:11 4th Dimension v6.0J 0%
2011-09-08 09:58:16 AceDesign 1 Pro 1.5 0%
2011-09-08 10:00:13 Adesign Pro 1.5 0%
2011-09-08 10:00:27 ADOBE DIMENSION v3.0 0%
2011-09-08 10:00:45 Adobe Premiere Pro Italian 1.5 0%
2011-09-08 10:07:16 Anwidasoft Graphic Equalizar Pro 1.5 0%
2011-09-08 10:11:56 AutoFTP Pro 1.5 0%
2011-09-08 10:19:21 Benutec SpyMyPC PRO 1.5 0%
2011-09-08 10:20:41 BNA Fixed Assets Next Dimension Desktop Pro 2002.2 0%
2011-09-08 10:21:44 BS1 Pro 1.5 0%
2011-09-08 10:23:08 Cakewalk 2002 0%
2011-09-08 10:23:08 Cakewalk 9 67%
2011-09-08 10:23:08 Cakewalk Audio Pro v9.03 80%
2011-09-08 10:23:09 Cakewalk Guitar Tracks Pro v2.0 0%
2011-09-08 10:23:09 Cakewalk Kinetic 0%
2011-09-08 10:23:09 Cakewalk Music Creator Pro 24 0%
2011-09-08 10:23:09 CAKEWALK MUSIC CRETOR PRO 2004 0%
2011-09-08 10:23:09 Cakewalk Pro 2.01 0%
2011-09-08 10:23:09 Cakewalk Pro 8.0 0%
2011-09-08 10:23:09 CakeWalk Pro 9 0%
2011-09-08 10:23:09 Cakewalk Pro Audio 5.0 0%
2011-09-08 10:23:09 Cakewalk Pro Audio 6.0 0%
2011-09-08 10:23:09 Cakewalk Pro Audio 7.0 0%
2011-09-08 10:23:09 Cakewalk Pro Audio 8 18%
2011-09-08 10:23:09 Cakewalk pro audio 9 0%
2011-09-08 10:23:09 Cakewalk Pro Audio 9.0 0%
2011-09-08 10:23:09 Cakewalk Pro Audio Deluxe 8.0 0%
2011-09-08 10:23:09 Cakewalk Pro Audio Deluxe v8.0 0%
2011-09-08 10:23:09 Cakewalk Pro Audio v5.0 0%
2011-09-08 10:23:09 CakeWalk Pro Audio v50 0%
2011-09-08 10:23:09 Cakewalk Pro Audio v6.0 0%
2011-09-08 10:23:09 Cakewalk Pro Audio v7.0 0%
2011-09-08 10:23:09 Cakewalk Pro Audio v8.0 0%
2011-09-08 10:23:09 Cakewalk Pro Audio v9.0 0%
2011-09-08 10:23:09 Cakewalk PRO MP3 and CD Maker v1.5 0%
2011-09-08 10:23:09 Cakewalk Pro v2.01 0%
2011-09-08 10:23:09 CakeWalk Pro v5.0 90%
2011-09-08 10:23:09 CakeWalk Pro v5.0 Win 0%
2011-09-08 10:23:09 CakeWalk Pro v6.0 0%
2011-09-08 10:23:09 Cakewalk Pro v8.0 0%
2011-09-08 10:27:58 Color Puller Pro 1.5 0%
2011-09-08 10:28:13 Compact Pro 1.5.x 0%
2011-09-08 10:28:35 Condition Zero Real Serial Number 77%
2011-09-08 10:28:42 Contact Organizer Pro Version: 1.5 0%
2011-09-08 10:44:32 DotHlp Pro 1.5 0%
2011-09-08 10:44:57 Drive Pro 1.5 0%
2011-09-08 10:45:29 DVD X Player Pro 1.5 0%
2011-09-08 10:48:48 Editor Pro 1.5 0%
2011-09-08 10:48:53 Effects Processor Pro 1.5 0%
2011-09-08 10:49:57 espAnadir Clasific Pro 1.5 0%
2011-09-08 10:57:37 FS Design Studio Pro 1.5 66%
2011-09-08 11:02:09 Gear audio v1.0 Number 0%
2011-09-08 11:03:30 Graphics Equalizer Pro 1.5 0%
2011-09-08 11:03:40 GRiNS for RealSystem G2 Pro 1.5 0%
2011-09-08 11:05:56 HardCopy Pro 1.5 0%
2011-09-08 11:05:56 HardInfo Pro 1.5 0%
2011-09-08 11:06:33 Hex WorkShop Serial Number 58%
2011-09-08 11:14:11 II_WorkProject Pro 1.5 0%
2011-09-08 11:15:09 Incremental Serial Number Printer 1.0.0.7 0%
2011-09-08 11:15:47 Instant Drive Access Pro 1.5 0%
2011-09-08 11:15:57 IntelliPDF BATES Pro for Adobe Acroba 1.5 0%
2011-09-08 11:17:24 IsoBuster Pro 1.5 14%
2011-09-08 11:17:24 IsoBuster Pro 1.5 Final 0%
2011-09-08 11:27:08 Logan Pro 1.5 0%
2011-09-08 11:27:18 Lottery Number $elector 2.0 52%
2011-09-08 11:27:18 Lottery Number $elector v2.0 56%
2011-09-08 11:27:48 MacDoppler Pro 1.5 0%
2011-09-08 11:28:11 MacWrite Pro 1.5 0%
2011-09-08 11:30:16 Media Palette Pro 1.5 0%
2011-09-08 11:43:41 Number Crunch 1.0 0%
2011-09-08 12:25:24 Music Cakewalk Creator Pro 24 100%
2011-09-08 12:30:55 PhotoMarker Pro 1.5 0%
2011-09-08 12:33:52 Pinnacle Studio 9 (delivered with Dazzle) serial number 70%
2011-09-08 12:33:52 Pinnacle Studio 9 SE serial number 81%
2011-09-08 12:34:02 Pinnacle Studio Plus, Studio 9 Plus 9.3.0 serial number 83%
2011-09-08 12:36:26 Premiere Pro Italian 1.5 0%
2011-09-08 12:37:36 QuickMail Pro Client Mac 1.5 0%
2011-09-08 12:37:36 QuickMail Pro Client PC 1.5 0%
2011-09-08 12:38:20 Pro Audio Cakewalk v9.0 0%
2011-09-08 12:38:22 Pro Studio 1.5 0%
2011-09-08 12:43:31 Rhythm N Chords 1.1 for Cakewalk Pro 0%
2011-09-08 12:43:31 Rhythm N Chords Pro MFX Plugin for Cakewalk v2.3 by PARADOX 0%
2011-09-08 12:43:31 Rhythm N Chords v1.1 for Cakewalk Pro 0%
2011-09-08 12:48:08 SitePad Pro 1.5 PR 119 0%
2011-09-08 12:48:28 SLNet Number: 1234567 76%
2011-09-08 12:50:20 SOS Pro 1.5 90%
2011-09-08 12:51:07 SpeedShare Pro 1.5 0%
2011-09-08 12:51:23 Spread Pro Spreadsheet 1.5 0%
2011-09-08 12:52:05 Tech-Pro World Clock 1.5 0%
2011-09-08 12:52:41 Text2Graphic Pro 1.5 0%
2011-09-08 12:58:03 Stamina Pro 1.5 0%
2011-09-08 13:17:11 Whats on my computer 1.0.1.30 Retail Serial number 60%
2011-09-08 13:17:11 Whats on my computer 1.0.1.30 Retail Serial number; 62%
2011-09-08 13:17:37 WinApiOblets v1.02 Use this Number 0%
2011-09-08 13:19:10 WinNC Pro 1.5 0%
2011-09-08 13:20:13 WiseBot Pro 1.5 0%
2011-09-08 13:20:13 WiseBot Pro 1.5 b33 0%
2012-12-11 23:58:41 Adobe premire pro 1.5 0%
2012-12-12 00:18:49 After Effects Serial Number Work 41%
2012-12-12 02:02:27 Apple Quicktime 7 Pro [Working Serial] 0%
2012-12-12 04:59:27 Cakewalk Z3TA+ 20%
2012-12-12 06:39:27 Counter Strike 1.5 Half-Life Serial 0%
2012-12-12 12:53:43 Game maker 6 Pro Serial 0%
2012-12-12 15:53:09 Iobit malware fighter 1.5 pro 0%